Latest Weather Observations for Pound Creek

IDV60801

Issued at 11:35 am EST Wednesday 3 September 2014 (issued every 30 minutes, with the page automatically refreshed every 10 minutes)

About weather observations | Map of weather stations | Latest weather observations for VIC | Other Formats
Station Details ID: 085099 Name: POUND CREEK Lat: -38.63 Lon: 145.81 Height: 3.0 m
Data from the previous 72 hours. | See also: Recent months at Pound Creek
Date/Time
EST
Temp
°C
App
Temp
°C
Dew
Point
Rel
Hum
%
Delta-T
°C
Wind Press
QNH
hPa
Press
MSL
hPa
Rain
since 9 am
mm
Dir
 
Spd
km/h
Gust
km/h
Spd
kts
Gust
kts
03/11:30am 12.6 8.7 5.3 61 3.4 SSW 15 20 8 11 1022.0 1022.0 0.0
03/11:00am 12.1 8.0 4.6 60 3.4 S 15 24 8 13 1022.2 1022.2 0.0
03/10:30am 12.0 7.8 5.9 66 2.9 S 17 24 9 13 1022.5 1022.5 0.0
03/10:00am 12.2 8.1 6.3 67 2.8 S 17 22 9 12 1022.9 1022.9 0.0
03/09:30am 11.9 8.1 6.0 67 2.8 S 15 22 8 12 1023.1 1023.1 0.0
03/09:00am 11.4 7.6 5.7 68 2.6 S 15 19 8 10 1023.3 1023.3 0.6
03/08:30am 11.0 7.1 5.5 69 2.5 S 15 20 8 11 1023.1 1023.1 0.6
03/08:00am 10.7 6.8 5.5 70 2.4 S 15 22 8 12 1023.0 1023.0 0.6
03/07:30am 10.2 6.4 5.6 73 2.1 S 15 22 8 12 1022.7 1022.7 0.6
03/07:00am 10.2 5.5 5.0 70 2.3 S 19 28 10 15 1022.4 1022.4 0.6
03/06:30am 10.1 4.6 4.0 66 2.7 S 22 30 12 16 1022.3 1022.3 0.6
03/06:00am 10.1 5.2 5.1 71 2.3 S 20 28 11 15 1022.2 1022.2 0.6
03/05:30am 9.7 4.7 4.7 71 2.2 S 20 30 11 16 1022.2 1022.2 0.6
03/05:00am 9.8 4.0 4.2 68 2.5 S 24 33 13 18 1022.0 1022.0 0.6
03/04:30am 9.9 4.5 4.5 69 2.4 S 22 32 12 17 1021.9 1021.9 0.6
03/04:00am 10.1 4.0 4.7 69 2.4 S 26 33 14 18 1021.6 1021.6 0.6
03/03:30am 10.2 4.2 5.2 71 2.3 S 26 35 14 19 1021.5 1021.5 0.6
03/03:00am 9.9 4.4 5.9 76 1.8 S 24 33 13 18 1021.6 1021.6 0.6
03/02:30am 9.8 4.2 5.4 74 2.0 S 24 32 13 17 1021.6 1021.6 0.6
03/02:00am 9.8 4.7 6.0 77 1.7 S 22 32 12 17 1022.0 1022.0 0.6
03/01:30am 9.9 3.6 5.9 76 1.8 S 28 35 15 19 1022.2 1022.2 0.6
03/01:00am 10.1 4.8 6.6 79 1.6 S 24 32 13 17 1022.1 1022.1 0.6
03/12:30am 10.6 4.8 6.4 75 2.0 S 26 33 14 18 1021.9 1021.9 0.6
03/12:00am 10.4 5.3 6.2 75 1.9 SSW 22 32 12 17 1022.0 1022.0 0.6
 
Date/Time
EST
Temp
°C
App
Temp
°C
Dew
Point
Rel
Hum
%
Delta-T
°C
Wind Press
QNH
hPa
Press
MSL
hPa
Rain
since 9 am
mm
Dir
 
Spd
km/h
Gust
km/h
Spd
kts
Gust
kts
02/11:30pm 10.5 4.3 6.3 75 2.0 SSW 28 35 15 19 1022.1 1022.1 0.6
02/11:00pm 10.9 5.1 6.3 73 2.1 SSW 26 35 14 19 1022.1 1022.1 0.6
02/10:30pm 10.8 5.3 6.0 72 2.2 SSW 24 32 13 17 1022.1 1022.1 0.6
02/10:00pm 10.9 5.9 6.3 73 2.1 SSW 22 30 12 16 1022.2 1022.2 0.6
02/09:30pm 10.8 5.7 6.2 73 2.1 SSW 22 28 12 15 1022.1 1022.1 0.6
02/09:00pm 11.0 6.6 6.6 74 2.1 SSW 19 28 10 15 1022.1 1022.1 0.6
02/08:30pm 10.9 6.4 5.9 71 2.3 SSW 19 22 10 12 1022.0 1022.0 0.6
02/08:00pm 10.8 6.1 5.3 69 2.5 SSW 19 28 10 15 1021.9 1021.9 0.6
02/07:30pm 10.9 6.7 5.9 71 2.3 SSW 17 24 9 13 1021.7 1021.7 0.6
02/07:00pm 10.9 5.8 5.9 71 2.3 SSW 22 32 12 17 1021.3 1021.3 0.6
02/06:30pm 11.0 7.3 6.4 73 2.2 SSW 15 24 8 13 1021.0 1021.0 0.6
02/06:00pm 10.0 7.0 6.2 77 1.8 S 11 17 6 9 1020.7 1020.7 0.6
02/05:30pm 10.6 5.8 5.6 71 2.3 S 20 30 11 16 1020.5 1020.5 0.6
02/05:00pm 11.2 5.6 5.5 68 2.6 S 24 32 13 17 1020.3 1020.3 0.6
02/04:30pm 11.7 5.8 5.8 67 2.7 S 26 37 14 20 1020.0 1020.0 0.6
02/04:00pm 11.9 5.0 4.4 60 3.4 SSW 30 37 16 20 1019.4 1019.4 0.6
02/03:30pm 12.3 6.1 4.5 59 3.5 SSW 26 35 14 19 1019.3 1019.3 0.6
02/03:00pm 12.5 6.4 6.5 67 2.8 SSW 28 37 15 20 1019.1 1019.1 0.6
02/02:30pm 12.6 7.1 7.5 71 2.5 SSW 26 35 14 19 1018.9 1018.9 0.6
02/02:00pm 13.1 8.7 8.8 75 2.2 SSW 22 32 12 17 1018.8 1018.8 0.6
02/01:30pm 11.3 8.4 8.3 82 1.5 S 13 19 7 10 1018.8 1018.8 0.6
02/01:00pm 12.1 6.3 8.0 76 2.0 S 28 41 15 22 1018.4 1018.4 0.0
02/12:30pm 13.0 7.2 6.4 64 3.1 SSE 26 33 14 18 1018.2 1018.2 0.0
02/12:00pm 13.2 7.1 6.5 64 3.2 SSE 28 35 15 19 1018.2 1018.2 0.0
02/11:30am 13.0 6.9 6.8 66 3.0 SSE 28 41 15 22 1018.0 1018.0 0.0
02/11:00am 12.4 5.8 6.2 66 2.9 S 30 41 16 22 1017.9 1017.9 0.0
02/10:30am 12.6 5.8 6.9 68 2.7 SSE 32 43 17 23 1017.6 1017.6 0.0
02/10:00am 12.4 5.6 7.1 70 2.5 S 32 41 17 22 1017.5 1017.5 0.0
02/09:30am 12.1 6.6 7.6 74 2.2 S 26 39 14 21 1017.1 1017.1 0.0
02/09:26am 12.0 6.2 7.9 76 2.0 S 28 39 15 21 1017.0 1017.0 0.0
02/09:00am 10.1 8.5 8.0 87 1.0 SSE 6 7 3 4 1016.9 1016.9 6.0
02/08:30am 11.1 6.8 7.8 80 1.6 SSE 20 24 11 13 1016.5 1016.5 5.6
02/08:00am 11.5 8.2 8.0 79 1.7 SSW 15 22 8 12 1015.8 1015.8 5.6
02/07:30am 11.0 6.8 7.3 78 1.8 SSW 19 28 10 15 1015.5 1015.5 5.6
02/07:00am 10.7 5.9 7.2 79 1.7 SSW 22 30 12 16 1015.0 1015.0 5.6
02/06:30am 10.9 6.0 7.0 77 1.9 SSW 22 28 12 15 1014.7 1014.7 5.6
02/06:00am 10.9 6.1 7.2 78 1.8 SSW 22 30 12 16 1014.2 1014.2 5.6
02/05:30am 10.6 6.2 6.6 76 1.9 SSW 19 28 10 15 1013.9 1013.9 5.6
02/05:00am 10.9 6.7 7.4 79 1.7 SSW 19 24 10 13 1013.4 1013.4 5.6
02/04:30am 11.1 6.8 7.8 80 1.6 SSW 20 26 11 14 1013.1 1013.1 5.6
02/04:00am 11.1 6.5 8.0 81 1.5 SSW 22 32 12 17 1012.8 1012.8 5.6
02/03:30am 10.7 6.3 7.6 81 1.5 SSW 20 26 11 14 1012.6 1012.6 5.6
02/03:00am 11.1 6.9 8.3 83 1.4 SSW 20 28 11 15 1012.5 1012.5 5.6
02/02:30am 11.3 7.0 8.0 80 1.6 SW 20 28 11 15 1012.3 1012.3 5.4
02/02:00am 10.9 7.7 8.3 84 1.3 SW 15 22 8 12 1012.3 1012.3 5.4
02/01:30am 10.3 7.2 7.4 82 1.4 SW 13 20 7 11 1012.1 1012.1 5.4
02/01:00am 11.4 7.8 8.4 82 1.5 SW 17 24 9 13 1012.1 1012.1 5.4
02/12:30am 11.4 7.4 8.4 82 1.5 SW 19 24 10 13 1011.8 1011.8 5.4
02/12:00am 11.3 7.2 8.7 84 1.3 WSW 20 28 11 15 1011.8 1011.8 5.4
 
Date/Time
EST
Temp
°C
App
Temp
°C
Dew
Point
Rel
Hum
%
Delta-T
°C
Wind Press
QNH
hPa
Press
MSL
hPa
Rain
since 9 am
mm
Dir
 
Spd
km/h
Gust
km/h
Spd
kts
Gust
kts
01/11:30pm 11.6 7.5 8.6 82 1.5 SW 20 28 11 15 1011.6 1011.6 5.4
01/11:00pm 11.6 8.1 8.6 82 1.5 WSW 17 22 9 12 1011.6 1011.6 5.4
01/10:30pm 11.5 8.3 8.5 82 1.5 SW 15 20 8 11 1011.8 1011.8 5.4
01/10:00pm 11.4 7.9 8.8 84 1.3 SW 17 20 9 11 1011.4 1011.4 5.4
01/09:30pm 11.7 8.3 9.1 84 1.3 SW 17 26 9 14 1011.1 1011.1 5.4
01/09:00pm 11.7 8.7 9.3 85 1.2 SW 15 22 8 12 1011.0 1011.0 5.4
01/08:30pm 11.5 8.1 9.2 86 1.2 SW 17 26 9 14 1010.6 1010.6 5.4
01/08:00pm 11.4 8.1 9.5 88 1.0 SW 17 20 9 11 1010.5 1010.5 5.4
01/07:30pm 11.0 8.4 9.4 90 0.8 WSW 13 17 7 9 1010.3 1010.3 5.4
01/07:00pm 11.6 8.8 10.0 90 0.8 WSW 15 22 8 12 1010.0 1010.0 5.4
01/06:30pm 11.5 8.1 10.4 93 0.6 SW 19 24 10 13 1009.6 1009.6 5.4
01/06:00pm 11.4 9.1 10.6 95 0.4 WSW 13 24 7 13 1009.1 1009.1 5.2
01/05:30pm 11.1 7.7 10.6 97 0.3 SW 19 26 10 14 1008.6 1008.6 5.2
01/05:00pm 11.3 6.2 10.7 96 0.3 WSW 28 39 15 21 1008.3 1008.3 4.6
01/04:56pm 11.4 5.5 10.6 95 0.4 SW 32 39 17 21 1008.2 1008.2 4.4
01/04:30pm 11.3 9.4 10.4 94 0.5 NW 11 17 6 9 1008.2 1008.2 3.8
01/04:00pm 11.4 9.4 10.3 93 0.6 WNW 11 19 6 10 1008.1 1008.1 3.4
01/03:30pm 11.8 10.3 10.7 93 0.6 WNW 9 15 5 8 1008.0 1008.0 2.8
01/03:00pm 11.8 9.5 10.5 92 0.7 NW 13 22 7 12 1007.7 1007.7 2.4
01/02:30pm 12.3 10.4 10.5 89 0.9 NW 11 19 6 10 1007.7 1007.7 1.6
01/02:00pm 12.0 9.3 10.4 90 0.8 NW 15 26 8 14 1007.8 1007.8 1.6
01/01:30pm 12.1 9.1 10.5 90 0.8 NW 17 28 9 15 1007.6 1007.6 1.6
01/01:00pm 11.9 9.1 10.1 89 0.9 NW 15 22 8 12 1007.8 1007.8 1.2
01/12:30pm 11.8 8.1 9.5 86 1.2 NNW 19 30 10 16 1007.9 1007.9 0.8
01/12:00pm 13.4 9.3 8.7 73 2.4 WNW 20 33 11 18 1007.9 1007.9 0.0
01/11:30am 14.2 10.9 8.2 67 3.0 NW 15 24 8 13 1007.7 1007.7 0.0
01/11:00am 15.7 11.7 8.4 62 3.7 WNW 19 32 10 17 1007.8 1007.8 0.0
01/10:30am 15.0 10.9 8.5 65 3.3 WNW 20 35 11 19 1008.3 1008.3 0.0
01/10:00am 15.3 12.5 8.5 64 3.4 NW 13 20 7 11 1008.0 1008.0 0.0
01/09:30am 15.2 12.1 8.9 66 3.2 WNW 15 22 8 12 1008.0 1008.0 0.0
01/09:00am 15.6 12.8 8.6 63 3.6 W 13 17 7 9 1008.1 1008.1 0.0
01/08:30am 15.9 13.1 6.9 55 4.4 NNW 11 20 6 11 1007.7 1007.7 0.0
01/08:00am 16.4 12.6 6.0 50 5.1 NNW 15 28 8 15 1007.4 1007.4 0.0
01/07:30am 15.5 13.1 6.8 56 4.3 NNW 9 15 5 8 1007.5 1007.5 0.0
01/07:00am 15.3 12.5 6.8 57 4.2 WNW 11 17 6 9 1007.7 1007.7 0.0
01/06:30am 15.4 11.0 6.7 56 4.2 N 19 26 10 14 1007.1 1007.1 0.0
01/06:00am 15.8 11.4 6.5 54 4.5 NNE 19 26 10 14 1006.9 1006.9 0.0
01/05:30am 16.1 13.2 6.5 53 4.7 N 11 15 6 8 1007.1 1007.1 0.0
01/05:00am 16.7 12.0 6.2 50 5.1 N 20 32 11 17 1007.3 1007.3 0.0
01/04:30am 16.8 12.7 6.3 50 5.1 N 17 26 9 14 1007.6 1007.6 0.0
01/04:00am 16.1 13.0 7.1 55 4.5 N 13 22 7 12 1007.8 1007.8 0.0
01/03:30am 14.5 11.9 7.8 64 3.3 NNE 11 13 6 7 1008.0 1008.0 0.0
01/03:00am 13.6 11.5 8.2 70 2.7 NNE 9 13 5 7 1008.2 1008.2 0.0
01/02:30am 13.8 11.7 8.4 70 2.7 NNE 9 15 5 8 1008.7 1008.7 0.0
01/02:00am 13.5 11.5 8.6 72 2.5 NNE 9 17 5 9 1009.2 1009.2 0.0
01/01:30am 13.3 11.6 8.4 72 2.4 NNE 7 13 4 7 1009.6 1009.6 0.0
01/01:00am 14.3 12.6 8.5 68 2.9 NNE 7 11 4 6 1009.7 1009.7 0.0
01/12:30am 15.4 13.6 7.9 61 3.8 NE 7 11 4 6 1009.9 1009.9 0.0
01/12:00am 16.1 12.7 7.6 57 4.3 NE 15 22 8 12 1009.8 1009.8 0.0
 
Date/Time
EST
Temp
°C
App
Temp
°C
Dew
Point
Rel
Hum
%
Delta-T
°C
Wind Press
QNH
hPa
Press
MSL
hPa
Rain
since 9 am
mm
Dir
 
Spd
km/h
Gust
km/h
Spd
kts
Gust
kts
31/11:30pm 16.3 12.0 7.8 57 4.3 NE 20 28 11 15 1009.8 1009.8 0.0
31/11:00pm 15.8 11.6 8.1 60 3.9 NE 20 30 11 16 1010.6 1010.6 0.0
31/10:30pm 15.5 12.3 8.3 62 3.6 NE 15 22 8 12 1011.4 1011.4 0.0
31/10:00pm 15.1 12.7 8.6 65 3.3 NNE 11 15 6 8 1011.9 1011.9 0.0
31/09:30pm 14.9 12.1 8.6 66 3.2 NNE 13 17 7 9 1012.3 1012.3 0.0
31/09:00pm 13.1 11.5 8.8 75 2.2 N 7 11 4 6 1012.7 1012.7 0.0
31/08:30pm 13.2 11.2 8.7 74 2.3 N 9 11 5 6 1012.9 1012.9 0.0
31/08:00pm 14.2 11.9 9.0 71 2.6 N 11 13 6 7 1013.1 1013.1 0.0
31/07:30pm 15.7 13.4 9.1 65 3.4 N 11 13 6 7 1013.1 1013.1 0.0
31/07:00pm 16.0 13.8 9.2 64 3.5 N 11 15 6 8 1013.2 1013.2 0.0
31/06:30pm 16.1 13.9 9.3 64 3.5 N 11 15 6 8 1013.2 1013.2 0.0
31/06:00pm 16.3 14.1 9.5 64 3.5 N 11 17 6 9 1013.3 1013.3 0.0
31/05:30pm 17.2 14.2 9.1 59 4.2 N 15 20 8 11 1013.2 1013.2 0.0
31/05:00pm 17.3 15.1 9.2 59 4.2 N 11 15 6 8 1013.1 1013.1 0.0
31/04:30pm 17.9 14.8 8.7 55 4.8 NNW 15 22 8 12 1013.2 1013.2 0.0
31/04:00pm 18.6 15.9 8.8 53 5.1 NNW 13 28 7 15 1013.4 1013.4 0.0
31/03:30pm 19.6 15.5 8.6 49 5.7 NNW 20 30 11 16 1013.6 1013.6 0.0
31/03:00pm 20.5 17.1 9.1 48 6.0 NNW 17 30 9 16 1013.8 1013.8 0.0
31/02:30pm 19.7 15.8 8.7 49 5.7 NNW 19 30 10 16 1014.3 1014.3 0.0
31/02:00pm 20.7 16.9 9.9 50 5.8 NNW 20 30 11 16 1014.4 1014.4 0.0
31/01:30pm 20.0 16.0 9.0 49 5.8 NNW 20 33 11 18 1014.7 1014.7 0.0
31/01:00pm 19.4 15.5 9.6 53 5.2 NNW 20 32 11 17 1015.0 1015.0 0.0
31/12:30pm 19.9 16.3 9.8 52 5.4 NNW 19 30 10 16 1015.5 1015.5 0.0
31/12:00pm 20.0 17.8 10.7 55 5.0 NNW 13 24 7 13 1016.1 1016.1 0.0

Other Formats:

Comma delimited format used in spreadsheet applications
http://www.bom.gov.au/fwo/IDV60801/IDV60801.94886.axf

JavaScript Object Notation format (JSON) in row-major order
http://www.bom.gov.au/fwo/IDV60801/IDV60801.94886.json